Regional Weather Roundup
Issued by NWS

Home | Current Version | Previous Version | Graphics & Text | Print | Product List | Glossary Off
Versions: 1 2 3 4 5 6 7 8 9 10 11 12 13 14 15 16 17 18 19 20 21 22 23 24 25 26 27 28 29 30 31 32 33 34 35 36 37 38 39 40 41 42 43 44 45 46 47 48 49 50

000
ASUS43 KLSX 280507
RWRMO

WEATHER SUMMARY FOR MISSOURI
NATIONAL WEATHER SERVICE SPRINGFIELD MO
1200 AM CDT THU MAY 28 2015

NOTE: "FAIR" INDICATES FEW OR NO CLOUDS BELOW 12,000 FEET WITH NO
       SIGNIFICANT WEATHER AND/OR OBSTRUCTIONS TO VISIBILITY.
       CURRENT SKY AND/OR WEATHER CONDITIONS ARE NOT AVAILABLE FOR
       CHILLICOTHE AND FARMINGTON.

MOZ001>031-035>038-043-044-053-054-280600-
...NORTHERN AND WESTERN MISSOURI...

CITY           SKY/WX    TMP DP  RH WIND       PRES   REMARKS
KANSAS CTY INT CLOUDY    68  55  63 SE6       30.09F
KANSAS C DTWN  CLOUDY    68  54  60 NE6       30.08F
LEE`S SUMMIT   CLOUDY    67  56  67 SE6       30.09F
ST JOSEPH      CLOUDY    64  60  87 CALM      30.09S
CHILLICOTHE      N/A     63  60  90 CALM      30.12R
KIRKSVILLE     CLEAR     60  58  92 CALM      30.15R

$$
MOZ066>068-077>081-088>096-101>105-280600-
...SOUTHWEST MISSOURI...

CITY           SKY/WX    TMP DP  RH WIND       PRES   REMARKS
SPRINGFIELD    MOCLDY    71  64  78 E5        30.11R
JOPLIN         MOCLDY    71  66  84 SE3       30.08S

$$
MOZ032>034-039>042-045>050-055>058-069>072-280600-
...CENTRAL MISSOURI...

CITY           SKY/WX    TMP DP  RH WIND       PRES   REMARKS
COLUMBIA       MOCLDY    67  57  70 E5        30.13R
JEFFERSON CITY MOCLDY    64  59  83 CALM      30.12R
ROLLA          MOCLDY    66  58  75 E5        30.13R
SEDALIA        CLOUDY    67  59  75 SE3       30.12S
WHITEMAN AFB   CLOUDY    67  58  71 E3        30.09F
WARRENSBURG    CLOUDY    63  59  88 CALM      30.10S
OSAGE BEACH    MOCLDY    63  57  82 SE5       30.12R

$$
MOZ051-052-059>065-280600-
...EAST CENTRAL MISSOURI...

CITY           SKY/WX    TMP DP  RH WIND       PRES   REMARKS
ST LOUIS INTL  PTCLDY    70  57  63 CALM      30.14R
SPIRIT OF STL  CLEAR     62  61  96 CALM      30.12R
ST CHARLES     CLEAR     64  59  83 CALM      30.13R

$$
MOZ072>076-082>087-097>100-106>115-280600-
...SOUTH CENTRAL AND SOUTHEAST MISSOURI...

CITY           SKY/WX    TMP DP  RH WIND       PRES   REMARKS
CAPE GIRARDEAU MOCLDY    70  69  97 S7        30.13S
FARMINGTON     MOCLDY    66  63  88 S5        30.18R
POPLAR BLUFF   CLEAR     71  67  87 CALM      30.13R
WEST PLAINS    LGT RAIN  70  66  87 CALM      30.16R FOG

$$


USA.gov is the U.S. government's official web portal to all federal, state and local government web resources and services.